Tracking 19817 objects as of 18-Aug-2019
HD Live streaming from Space Station
objects crossing your sky now

THORAD DELTA 1 DEB

Track THORAD DELTA 1 DEB now!
10-day predictions


NORAD ID: 8307
Int'l Code: 1974-089BQ
Perigee: 1,432.1 km
Apogee: 2,172.4 km
Inclination: 101.2 °
Period: 122.6 minutes
Semi major axis: 8173 km
RCS: 0.1335 m2 (medium)
Launch date: November 15, 1974
Source: United States (US)
Launch site: AIR FORCE WESTERN TEST RANGE (AFWTR)

Note: This is SATELLITE DEBRIS
aabbcc
Your satellite tracking list
Your tracking list is empty




NASA's NSSDC Master Catalog

Two Line Element Set (TLE):
1  8307U 74089BQ  19228.92441115 +.00000140 +00000-0 +22398-2 0  9996
2  8307 101.1752 348.1312 0452859 239.8891 241.4439 11.74932927920106
Source of the keplerian elements: AFSPC